Location: Buckland
(65.9785°N, 161.1281°W)
Time: 21:21:04
(UTC+00:00)

PRISM - Pass Details

Date: 23 January 2021
Orbit: 565 x 584 km, 98.2° (Epoch: 06 March)

Event Time Altitude Azimuth Distance (km) Brightness Sun altitude
Rises 16:25:00 0° 25° (NNE) 2,787 ? -20.7°
Reaches altitude 10° 16:27:33 10° 9° (N) 1,889 ? -20.5°
Enters shadow 16:29:20 18° 345° (NNW) 1,451 ? -20.3°
